Location: La Oliva
(42.2466°N, 2.9955°E)
Time: 11:31:29
(UTC+00:00)

Okean 3 Rocket - Pass Details

Date: 22 April 2021
Orbit: 615 x 645 km, 82.5° (Epoch: 10 May)

Event Time Altitude Azimuth Distance (km) Brightness Sun altitude
Rises 20:38:38 0° 356° (N) 2,957 7.7 -20.4°
Reaches altitude 10° 20:40:57 10° 1° (N) 2,040 6.7 -20.7°
Maximum altitude 20:45:22 53° 79° (E) 782 3.8 -21.3°
Enters shadow 20:45:39 52° 94° (E) 790 3.7 -21.3°
